Regional Weather Roundup
Issued by NWS

Home | Current Version | Previous Version | Graphics & Text | Print | Product List | Glossary On
Versions: 1 2 3 4 5 6 7 8 9 10 11 12 13 14 15 16 17 18 19 20 21 22 23 24 25 26 27 28 29 30 31 32 33 34 35 36 37 38 39 40 41 42 43 44 45 46 47 48 49 50
000
ASUS45 KPSR 241600
RWRAZ

ARIZONA REGIONAL HOURLY WEATHER ROUNDUP
NATIONAL WEATHER SERVICE PHOENIX AZ
900 AM MST FRI APR 24 2015

NOTE: FAIR INDICATES FEW OR NO CLOUDS BELOW 12,000 FEET WITH NO
SIGNIFICANT WEATHER AND/OR OBSTRUCTIONS TO VISIBILITY.

AZZ001>003-036-241700-
NORTHWEST ARIZONA

CITY           SKY/WX    TMP DP  RH WIND       PRES   REMARKS
KINGMAN        SUNNY     61  41  47 SW16      29.89R
$$

AZZ004>008-015-016-018-241700-
NORTH CENTRAL ARIZONA

CITY           SKY/WX    TMP DP  RH WIND       PRES   REMARKS
GRAND CANYON   CLOUDY    47  32  56 SW13      29.96S
WILLIAMS       CLOUDY    45  36  70 SW10G18   30.04S
PRESCOTT       PTSUNNY   52  38  58 E10G20    29.97R
FLAGSTAFF      NOT AVBL
PAYSON         CLOUDY    52  37  58 S8        30.01R
PAGE           SUNNY     60  30  32 VRB3      29.85S
$$

AZZ009>014-017-241700-
NORTHEAST ARIZONA

CITY           SKY/WX    TMP DP  RH WIND       PRES   REMARKS
WINSLOW        NOT AVBL
SAINT JOHNS    SUNNY     54  28  36 SW17      29.95R
WINDOW ROCK    PTSUNNY   51  28  41 W14G22    29.95S
SHOW LOW       SUNNY     48  25  40 SW17      30.00R
$$

AZZ023-241700-
GREATER PHOENIX AREA

CITY           SKY/WX    TMP DP  RH WIND       PRES   REMARKS
PHOENIX        PTSUNNY   64  52  64 SE8       29.93R
GLENDALE       PTSUNNY   64  48  55 CALM      29.95R
DEER VALLEY    HVY RAIN  58  49  72 CALM      29.94R VSB 1
SCOTTSDALE     LGT RAIN  63  48  58 SE3       29.96R
MESA-GATEWAY   PTSUNNY   64  48  55 S8        29.96R
CHANDLER       PTSUNNY   68  50  52 S14       29.94R
$$

AZZ027-028-241700-
SOUTHWEST MARICOPA COUNTY AND PINAL COUNTY

CITY           SKY/WX    TMP DP  RH WIND       PRES   REMARKS
CASA GRANDE    PTSUNNY   64  46  52 S14G20    29.94R
$$

AZZ503-504-507>509-241700-
SOUTHEAST ARIZONA

CITY           SKY/WX    TMP DP  RH WIND       PRES   REMARKS
TUCSON         PTSUNNY   63  43  48 S15G22    30.01R
RYAN FIELD       N/A     63  45  51 S13G18    30.00R
NOGALES        MOSUNNY   59  38  45 S12       30.03R
SAFFORD        SUNNY     64  37  36 NW13G23   29.95R
$$

AZZ020-021-025-026-031-241700-
SOUTHWEST ARIZONA

CITY           SKY/WX    TMP DP  RH WIND       PRES   REMARKS
YUMA           MOSUNNY   69  49  48 W6        29.92R
$$

CAZ031-033-041-043-047-048-061-241700-
SOUTHERN CALIFORNIA

CITY           SKY/WX    TMP DP  RH WIND       PRES   REMARKS
DOWNTOWN L.A.  PTSUNNY   62  51  67 VRB3      29.98R
L.A. AIRPORT   CLOUDY    59  52  77 S5        29.99R
SAN DIEGO      CLOUDY    62  52  69 SW10      30.02R
BURBANK        CLOUDY    59  48  67 SE9       29.97S
ONTARIO        CLOUDY    59  49  69 W5        29.99R
RIVERSIDE      CLOUDY    59  49  69 CALM      29.99R
PALM SPRINGS   MOSUNNY   70  46  42 MISG      29.88R
EL CENTRO NAS  MOSUNNY   71  46  40 W18       29.91R
IMPERIAL       SUNNY     69  48  47 W15       29.89R
BLYTHE         SUNNY     70  48  45 S16       29.87R
$$

NVZ020-UTZ003-241700-
SOUTHERN NEVADA-UTAH

CITY           SKY/WX    TMP DP  RH WIND       PRES   REMARKS
LAS VEGAS      NOT AVBL
SALT LAKE CITY PTSUNNY   59  30  33 S21       29.71F
$$

NMZ009-TXZ055-241700-
NEW MEXICO-WEST TEXAS

CITY           SKY/WX    TMP DP  RH WIND       PRES   REMARKS
ALBUQUERQUE    CLOUDY    49  38  65 E5        29.94R
EL PASO        MOSUNNY   63  34  33 W22G30    29.96R
$$


........................KEY........................
SKY/WX - SKY CONDITION/WEATHER
TMP    - TEMPERATURE IN FAHRENHEIT
DP     - DEW POINT IN FAHRENHEIT
RH     - RELATIVE HUMIDITY IN PERCENT
WIND   - DIRECTION AND SPEED IN MILES PER HOUR (MPH)
VRB    - VARIABLE WIND DIRECTION
PRES   - MEAN SEA LEVEL PRESSURE IN INCHES OF MERCURY
         F - FALLING PRESSURE   R - RISING PRESSURE
         S - STEADY PRESSURE
VSB    - VISIBILITY IN MILES
HX     - HEAT INDEX IN FAHRENHEIT
WCI    - WIND CHILL INDEX IN FAHRENHEIT
TC     - TEMPERATURE IN CELSIUS WHICH IS ALSO KNOWN AS
         TEMPERATURE IN CENTIGRADE
AFB    - AIR FORCE BASE
         LUKE AFB IS LUKE AIR FORCE BASE
         DAVIS-MONTHAN IS DAVIS-MONTHAN AIR FORCE BASE
NAS    - NAVAL AIR STATION
         EL CENTRO NAS IS EL CENTRO NAVAL AIR STATION
N/A    - NOT AVAILABLE




USA.gov is the U.S. government's official web portal to all federal, state and local government web resources and services.